Preview of NWS' New Version of Forecast
This preview is not operational and should not be used for support decisions.

Regional Weather Roundup (RWR)

Issued by National Weather Service (NWS)

                            
000
ASUS43 KBIS 181902
RWRND 

NORTH DAKOTA REGIONAL WEATHER ROUNDUP
NATIONAL WEATHER SERVICE BISMARCK ND
200 PM CDT THU JUL 18 2019

NOTE: "FAIR" INDICATES FEW OR NO CLOUDS BELOW 12,000 FEET WITH NO
SIGNIFICANT WEATHER AND/OR OBSTRUCTIONS TO VISIBILITY.


NDZ001>003-009>011-017-182000-
NORTHWEST NORTH DAKOTA
  
CITY           SKY/WX    TMP DP  RH WIND       PRES   REMARKS
WILLISTON      SUNNY     82  50  32 W18       29.64F                  
MINOT          SUNNY     81  52  36 W18G29    29.60F                  
MINOT AFB      SUNNY     79  56  44 W13       29.58F                  
$$
 
NDZ018>021-031>035-040>046-182000-
SOUTHWEST NORTH DAKOTA
  
CITY           SKY/WX    TMP DP  RH WIND       PRES   REMARKS
BISMARCK       PTSUNNY   82  61  48 W10       29.68S                  
DICKINSON      MOSUNNY   79  53  40 W13G23    29.70F                  
GARRISON         N/A     78  53  41 W17G31    29.65S                  
HETTINGER ARPT SUNNY     81  52  36 NW7       29.74F                  
$$
 
NDZ004>008-012>016-024-026-027-054-182000-
NORTHEAST NORTH DAKOTA
  
CITY           SKY/WX    TMP DP  RH WIND       PRES   REMARKS
GRAND FORKS    PTSUNNY   82  67  60 SW9       29.56F                  
GRND FRKS AFB  MOSUNNY   83  68  60 W13       29.57F                  
DEVILS LAKE    SUNNY     82  57  42 W17G23    29.60S                  
$$
 
NDZ022-023-025-028>030-036>039-047>053-182000-
SOUTHEAST NORTH DAKOTA
  
CITY           SKY/WX    TMP DP  RH WIND       PRES   REMARKS
FARGO          PTSUNNY   78  67  68 S12       29.62F                  
JAMESTOWN      SUNNY     81  64  56 W13G21    29.65S                  
$$